TimeMST,TemperatureF,Dew PointF,Humidity,Sea Level PressureIn,VisibilityMPH,Wind Direction,Wind SpeedMPH,Gust SpeedMPH,PrecipitationIn,Events,Conditions,WindDirDegrees,DateUTC
12:53 AM,33.1,26.1,75,30.11,10.0,East,6.9,-,N/A,,Clear,80,2012-11-04 06:53:00
1:53 AM,32.0,25.0,75,30.11,10.0,Calm,Calm,-,N/A,,Clear,0,2012-11-04 07:53:00
1:53 AM,28.0,24.1,85,30.13,10.0,SSW,4.6,-,N/A,,Clear,210,2012-11-04 08:53:00
2:53 AM,28.0,24.1,85,30.12,10.0,West,4.6,-,N/A,,Clear,270,2012-11-04 09:53:00
3:53 AM,28.0,24.1,85,30.13,10.0,WSW,5.8,-,N/A,,Clear,250,2012-11-04 10:53:00
4:53 AM,28.9,24.1,82,30.14,10.0,WSW,5.8,-,N/A,,Clear,250,2012-11-04 11:53:00
5:53 AM,30.0,25.0,82,30.16,10.0,West,8.1,-,N/A,,Clear,270,2012-11-04 12:53:00
6:53 AM,30.9,25.0,79,30.17,10.0,WSW,4.6,-,N/A,,Clear,240,2012-11-04 13:53:00
7:53 AM,39.0,27.0,62,30.17,10.0,West,8.1,-,N/A,,Clear,270,2012-11-04 14:53:00
8:53 AM,44.1,27.0,51,30.16,10.0,West,11.5,-,N/A,,Clear,280,2012-11-04 15:53:00
9:53 AM,52.0,27.0,38,30.14,10.0,WSW,8.1,-,N/A,,Clear,240,2012-11-04 16:53:00
10:53 AM,57.0,27.0,32,30.12,10.0,West,10.4,-,N/A,,Clear,280,2012-11-04 17:53:00
11:53 AM,62.1,26.1,25,30.07,10.0,West,9.2,-,N/A,,Clear,280,2012-11-04 18:53:00
12:53 PM,64.9,25.0,22,30.04,10.0,West,8.1,-,N/A,,Clear,280,2012-11-04 19:53:00
1:53 PM,68.0,25.0,20,30.03,10.0,Variable,4.6,-,N/A,,Clear,0,2012-11-04 20:53:00
2:53 PM,69.1,21.9,17,30.03,10.0,WSW,4.6,-,N/A,,Clear,240,2012-11-04 21:53:00
3:53 PM,64.0,21.9,20,30.05,10.0,SW,5.8,-,N/A,,Clear,230,2012-11-04 22:53:00
4:53 PM,54.0,23.0,30,30.11,10.0,Calm,Calm,-,N/A,,Clear,0,2012-11-04 23:53:00
5:53 PM,57.0,25.0,29,30.12,10.0,North,3.5,-,N/A,,Clear,360,2012-11-05 00:53:00
6:53 PM,54.0,25.0,33,30.15,10.0,North,5.8,-,N/A,,Scattered Clouds,350,2012-11-05 01:53:00
7:53 PM,50.0,26.1,39,30.16,10.0,North,4.6,-,N/A,,Clear,360,2012-11-05 02:53:00
8:53 PM,46.9,26.1,44,30.20,10.0,North,6.9,-,N/A,,Clear,360,2012-11-05 03:53:00
10:53 PM,48.0,27.0,44,30.19,10.0,NW,3.5,-,N/A,,Clear,310,2012-11-05 05:53:00